TimeAST,TemperatureF,Dew PointF,Humidity,Sea Level PressureIn,VisibilityMPH,Wind Direction,Wind SpeedMPH,Gust SpeedMPH,PrecipitationIn,Events,Conditions,WindDirDegrees,DateUTC
12:00 AM,80.6,75.2,84,29.86,6.2,East,9.2,-,N/A,,Partly Cloudy,90,2012-10-12 04:00:00
1:00 AM,80.6,75.2,84,29.83,6.2,ESE,5.8,-,N/A,,Partly Cloudy,110,2012-10-12 05:00:00
2:00 AM,80,75,79,29.82,31,ESE,5.8,,,,Partly Cloudy,120,2012-10-12 06:00:00
2:00 AM,80.6,75.2,84,29.80,6.2,ESE,6.9,-,N/A,,Scattered Clouds,120,2012-10-12 06:00:00
3:00 AM,78.8,75.2,89,29.80,6.2,ESE,5.8,-,N/A,,Scattered Clouds,120,2012-10-12 07:00:00
4:00 AM,78.8,75.2,89,29.80,6.2,ESE,4.6,-,N/A,,Partly Cloudy,120,2012-10-12 08:00:00
5:00 AM,78,74,84,29.79,31,SE,3.5,,,,Scattered Clouds,130,2012-10-12 09:00:00
5:00 AM,77.0,73.4,89,29.77,6.2,SE,3.5,-,N/A,,Partly Cloudy,130,2012-10-12 09:00:00
6:00 AM,77.0,75.2,94,29.80,6.2,ESE,3.5,-,N/A,,Partly Cloudy,120,2012-10-12 10:00:00
7:00 AM,80.6,77.0,89,29.83,6.2,Variable,3.5,-,N/A,,Scattered Clouds,0,2012-10-12 11:00:00
8:00 AM,83,76,74,29.86,31,ENE,6.9,,,,Scattered Clouds,70,2012-10-12 12:00:00
8:00 AM,84.2,75.2,74,29.86,6.2,ENE,4.6,-,N/A,,Scattered Clouds,70,2012-10-12 12:00:00
9:00 AM,86.0,77.0,74,29.86,6.2,ENE,4.6,-,N/A,,Partly Cloudy,70,2012-10-12 13:00:00
10:00 AM,86.0,75.2,70,29.86,6.2,ENE,4.6,-,N/A,,Partly Cloudy,60,2012-10-12 14:00:00
11:00 AM,87,76,62,29.87,31,NE,6.9,,,,Scattered Clouds,50,2012-10-12 15:00:00
11:00 AM,87.8,77.0,70,29.86,6.2,NE,6.9,-,N/A,,Partly Cloudy,50,2012-10-12 15:00:00
1:00 PM,89.6,75.2,62,29.80,6.2,SSW,5.8,-,N/A,,Partly Cloudy,210,2012-10-12 17:00:00
2:00 PM,86,76,66,29.79,31,NE,5.8,,,,Partly Cloudy,40,2012-10-12 18:00:00
2:00 PM,86.0,75.2,70,29.80,6.2,NE,5.8,-,N/A,,Scattered Clouds,40,2012-10-12 18:00:00
3:00 PM,86.0,75.2,70,29.77,6.2,NE,5.8,-,N/A,,Scattered Clouds,40,2012-10-12 19:00:00
4:00 PM,86.0,75.2,70,29.77,6.2,NE,8.1,-,N/A,,Partly Cloudy,50,2012-10-12 20:00:00
5:00 PM,85,74,64,29.77,31,NE,6.9,,,,Scattered Clouds,50,2012-10-12 21:00:00
5:00 PM,84.2,75.2,74,29.77,6.2,ENE,6.9,-,N/A,,Partly Cloudy,60,2012-10-12 21:00:00
6:00 PM,82.4,75.2,79,29.77,6.2,ENE,4.6,-,N/A,,Partly Cloudy,60,2012-10-12 22:00:00
7:00 PM,82.4,75.2,79,29.77,6.2,NE,6.9,-,N/A,,Partly Cloudy,50,2012-10-12 23:00:00
8:00 PM,82,76,79,29.81,31,NE,9.2,,,,Scattered Clouds,40,2012-10-13 00:00:00
8:00 PM,82.4,77.0,84,29.80,6.2,NE,9.2,-,N/A,,Partly Cloudy,40,2012-10-13 00:00:00
9:00 PM,82.4,77.0,84,29.83,6.2,NE,9.2,-,N/A,,Partly Cloudy,50,2012-10-13 01:00:00
10:00 PM,82.4,75.2,79,29.86,6.2,ENE,8.1,-,N/A,,Partly Cloudy,60,2012-10-13 02:00:00
11:00 PM,82,76,76,29.86,31,ENE,5.8,,,,Scattered Clouds,60,2012-10-13 03:00:00
11:00 PM,82.4,75.2,79,29.86,6.2,ENE,5.8,-,N/A,,Partly Cloudy,60,2012-10-13 03:00:00